軌道要素
Epoch 2014 Mar. 4.0 TT = JDT 2456720.5
T 2014 Feb. 17.05432 TT MPCW
q 2.8349249 (2000.0) P Q
z +0.0003919 Peri. 104.97383 -0.23833928 -0.97075450
+/-0.0000006 Node 2.02891 -0.83588245 +0.18994081
e 0.9988890 Incl. 125.53209 +0.49446427 -0.14682705
From 311 observations 2013 July 26-2015 Mar. 28, mean residual 0".4.
|